Home   Weather   Brandon   Past weeks

Flag for Canada Past Weather in Brandon, Manitoba, Canada — Yesterday and Last 2 Weeks

Now
66 °F

Sunny.


Feels Like: 66 °F
Forecast: N/A
Wind: 6 mph from Northeast

Location: Brandon

Current Time: Sep 27, 2016 at 5:35:52 PM

Latest Report: Sep 27, 2016 at 5:00 PM


Visibility: 15 mi

Pressure: 29.97 "Hg

Humidity: 26%

Dew Point: 30 °F

Location of BrandonLocation

Past Weather in Brandon — Graph

°F

Brandon Temperature Yesterday

Maximum temperature yesterday: 63 °F (at 3:00 PM)
Minimum temperature yesterday: 37 °F (at 7:00 AM)
Average temperature yesterday: 49 °F

High & Low Weather Summary for the Past Weeks

 TemperatureHumidityPressure
High77 °F (Sep 18, 3:00 PM)100% (Sep 15, 4:00 AM)30.34 "Hg (Sep 15, 4:00 AM)
Low30 °F (Sep 17, 7:00 AM)26% (Sep 27, 4:00 PM)29.46 "Hg (Sep 18, 3:00 PM)
Average53 °F70%30.00 "Hg
* Reported Sep 12 4:00 PM — Sep 27 4:00 PM, Brandon, Weather by CustomWeather, © 2016

Note: Actual official high and low records may vary slightly from our data, if they occured in-between our weather recording intervals... More about our weather records

Advertising

Brandon Weather History for the Previous 24 Hours

Scroll right to see more
 ConditionsComfort  
Time TempWeatherWind HumidityBarometerVisibility
4:00 PM
Tue, Sep 27
66 °FSunny.No wind26%29.97 "Hg15 mi
3:00 PM66 °FSunny.13 mph30%29.98 "Hg15 mi
2:00 PM64 °FSunny.9 mph32%29.98 "Hg15 mi
1:00 PM63 °FSunny.6 mph34%29.99 "Hg15 mi
12:00 PM59 °FPassing clouds.8 mph45%30.01 "Hg15 mi
11:00 AM54 °FPassing clouds.10 mph63%30.01 "Hg15 mi
10:00 AM46 °FPassing clouds.7 mph71%30.03 "Hg15 mi
9:00 AM39 °FSunny.7 mph87%30.04 "Hg15 mi
8:00 AM34 °FSunny.8 mph87%30.03 "Hg15 mi
7:00 AM34 °FClear.2 mph87%30.02 "Hg15 mi
6:00 AM34 °FClear.2 mph87%30.02 "Hg15 mi
5:00 AM36 °FClear.8 mph87%30.02 "Hg15 mi
4:00 AM37 °FClear.12 mph81%30.02 "Hg15 mi
3:00 AM36 °FClear.7 mph87%30.02 "Hg15 mi
2:00 AM37 °FClear.8 mph81%30.03 "Hg15 mi
1:00 AM37 °FClear.10 mph81%30.03 "Hg15 mi
12:00 AM39 °FClear.8 mph81%30.04 "Hg15 mi
11:00 PM
Mon, Sep 26
41 °FClear.9 mph76%30.05 "Hg15 mi
10:00 PM45 °FClear.5 mph66%30.05 "Hg15 mi
9:00 PM46 °FClear.6 mph62%30.04 "Hg15 mi
8:00 PM52 °FPassing clouds.13 mph47%30.04 "Hg15 mi
7:00 PM59 °FPassing clouds.18 mph34%30.03 "Hg15 mi
6:00 PM61 °FPassing clouds.22 mph31%30.03 "Hg15 mi
5:00 PM63 °FPassing clouds.24 mph27%30.03 "Hg15 mi
Weather by CustomWeather, © 2016

See weather overviewHow to use our weather pages